Probability
7 8 11 12 13 13 14 15 15 16 16 14 11 10 9 7 5 4 5 8 10 10 7 5 4 3 2 1 0 0 0 0 0 0 0 0 0 0 0 0 0 0 0
8 9 10 13 14 16 16 16 15 15 15 14 11 10 9 8 6 4 4 6 7 8 7 5 4 4 3 3 1 1 1 0 0 0 0 0 0 0 0 0 0 0 0
8 8 9 11 15 16 17 16 15 14 15 13 11 11 10 9 7 6 4 4 5 5 6 6 6 6 6 5 4 3 3 2 0 0 0 0 0 0 0 0 0 0 1
8 7 7 8 11 14 15 15 15 15 14 12 12 13 12 9 8 6 5 5 5 5 6 6 6 6 6 6 6 5 5 4 2 1 0 0 0 0 0 0 0 0 1
10 8 6 6 8 12 14 14 15 15 13 11 13 15 13 10 8 8 7 7 6 7 7 6 6 6 6 6 6 6 5 5 5 3 1 0 0 0 0 0 0 0 1
12 11 9 7 8 11 13 14 15 14 12 10 13 15 14 11 10 10 10 9 8 7 7 6 6 6 6 6 6 6 5 5 5 4 2 0 0 0 0 0 0 0 0
13 14 14 13 12 13 14 15 15 13 10 9 12 15 14 11 10 11 11 10 9 8 7 6 6 6 6 6 6 6 6 5 4 4 2 1 0 0 0 0 0 0 0
12 15 17 15 14 14 15 15 14 11 8 8 11 14 13 9 8 9 10 9 8 8 6 6 6 6 6 6 6 6 6 5 4 3 3 2 1 0 0 0 0 0 0
10 12 15 15 13 13 15 15 13 11 9 9 11 12 11 8 6 6 7 7 7 6 5 5 6 6 6 6 6 6 5 4 3 3 3 3 2 1 0 0 0 0 0
9 10 13 14 12 12 12 12 11 11 10 9 9 10 8 7 6 6 5 6 6 6 5 5 6 6 6 6 6 6 5 4 3 3 3 3 3 2 1 0 0 0 0
7 9 12 12 11 10 8 7 8 10 11 10 9 8 7 6 6 6 5 5 5 6 6 6 6 6 6 6 6 6 5 4 4 3 3 3 3 3 2 1 0 0 0
7 8 10 10 8 6 5 5 8 11 13 11 10 8 7 6 6 5 4 4 4 5 6 6 6 7 6 5 4 4 4 4 4 4 4 4 3 3 3 2 1 0 0
6 7 7 7 6 5 4 5 8 13 15 14 12 9 7 6 6 4 3 3 3 4 6 6 7 8 8 5 4 3 3 3 4 4 4 4 4 3 3 3 1 0 0
6 5 5 5 6 6 5 6 9 13 15 16 14 10 8 7 6 5 4 3 3 4 5 6 7 7 8 7 5 3 3 3 3 4 4 4 3 3 3 3 2 1 0
4 3 3 3 4 5 5 6 8 11 14 16 14 12 10 9 7 6 5 4 3 3 4 5 6 6 7 7 5 4 4 4 5 5 4 3 3 3 3 2 2 1 0
2 3 3 2 3 3 4 6 7 10 13 15 14 13 12 10 9 8 6 4 3 3 3 4 5 5 5 4 3 3 4 6 7 7 5 3 3 2 2 1 1 0 0
1 3 4 3 2 3 4 6 7 10 12 13 12 12 12 10 9 9 7 4 3 3 4 4 4 4 3 2 1 1 3 6 8 8 6 4 2 1 1 0 0 0 0
1 3 3 2 2 4 5 7 8 10 11 11 10 10 10 10 9 8 7 4 3 3 4 4 3 2 2 1 0 0 1 2 5 7 6 4 1 0 0 0 0 0 0
2 3 3 3 4 5 6 7 8 9 9 9 9 9 9 8 7 6 5 3 2 1 1 1 1 1 1 0 0 0 0 0 2 4 4 3 1 0 0 0 0 0 0
3 3 4 4 5 6 6 7 8 9 9 9 9 9 8 7 6 5 4 2 1 0 0 0 0 0 0 0 0 0 0 0 1 2 3 2 1 0 0 0 0 0 0
3 3 5 6 6 6 6 7 8 9 9 9 9 9 8 8 7 6 4 3 1 0 0 0 0 0 0 0 0 0 0 0 0 1 2 2 1 0 0 0 0 0 0
2 3 5 6 6 6 6 6 6 8 9 9 9 9 9 8 7 6 4 3 2 1 0 1 1 0 0 0 0 0 0 0 0 0 1 2 1 0 0 0 0 0 0
2 2 3 4 4 4 5 5 4 5 7 7 6 7 7 7 6 5 4 3 2 1 0 1 1 0 0 0 0 0 0 0 0 0 0 1 1 0 0 0 0 0 0
1 1 2 2 3 3 3 3 1 2 3 4 4 4 4 4 5 5 4 3 3 1 0 0 0 0 0 0 0 0 0 0 0 0 0 0 0 0 0 0 0 0 0
1 0 1 1 1 2 1 1 0 0 1 1 2 3 3 3 4 4 4 3 2 1 0 0 0 0 0 0 0 0 0 0 0 0 0 0 0 0 0 0 0 0 0
0 0 0 0 0 1 0 0 0 0 0 1 2 3 3 3 3 4 3 2 1 1 0 0 0 0 0 0 0 0 0 0 0 0 0 0 0 0 0 0 0 0 0
Wind_Speed
2 2 4 4 4 3 3 4 4 3 4 3 3 3 2 2 1 2 2 2 3 3 3 3 3 3 2 3 3 2 3 2 2 2 2 2 2 1 1 0 0 0 0
2 2 3 3 4 4 4 4 5 5 4 3 3 3 2 2 2 1 1 2 3 3 4 4 3 3 3 3 3 3 2 1 1 2 2 1 2 2 1 0 0 0 0
5 3 3 3 3 3 4 5 5 5 4 4 2 2 2 1 1 1 1 2 3 3 3 4 3 3 3 3 3 4 4 3 1 1 3 3 2 1 1 1 0 0 0
3 4 3 3 3 3 3 3 4 4 3 4 4 5 4 3 3 2 2 2 2 3 3 4 4 3 3 3 3 3 3 4 2 1 1 1 3 2 0 1 1 0 0
4 4 4 4 2 2 2 2 2 2 2 3 4 5 4 3 2 2 2 2 1 2 3 3 3 3 3 3 2 3 3 3 3 2 2 2 1 1 2 1 1 1 1
2 2 2 3 2 1 1 2 2 1 2 3 3 4 5 4 3 3 3 2 1 1 2 3 3 3 3 3 3 3 3 2 3 2 2 2 2 2 2 2 1 1 1
2 3 3 3 2 2 2 2 2 2 2 3 3 4 4 5 5 4 4 3 2 2 2 3 3 3 3 3 3 3 3 3 3 3 2 2 2 2 2 2 1 1 1
2 3 3 3 3 3 2 2 2 2 2 3 3 3 4 3 3 3 3 3 3 2 3 3 3 3 3 3 3 3 3 2 3 3 2 2 2 2 2 3 3 1 1
1 2 1 1 1 2 2 3 3 2 2 3 3 3 3 3 3 2 2 2 2 2 3 3 3 3 3 3 3 3 3 3 3 3 3 2 2 2 2 2 3 3 2
0 0 1 1 1 1 1 2 2 3 3 3 3 3 3 3 2 2 2 2 2 2 3 3 3 3 2 3 3 3 3 3 3 2 3 2 1 1 2 2 2 2 3
1 0 0 0 0 1 1 2 2 2 2 2 3 3 3 3 3 2 2 3 3 3 3 3 3 3 3 3 3 3 3 3 3 3 3 3 2 2 2 2 2 2 2
1 0 0 0 0 1 1 1 2 2 2 2 3 3 2 3 3 3 3 3 3 2 3 3 3 3 3 3 3 3 4 4 4 3 3 3 2 2 2 2 2 3 3
1 1 1 1 1 1 2 1 1 1 1 2 3 2 2 3 3 3 3 3 3 3 3 3 3 3 3 3 3 3 4 4 4 4 4 4 4 4 3 3 3 2 2
1 0 1 2 1 1 2 1 2 1 1 2 3 3 3 3 3 3 3 3 3 3 3 3 3 3 3 3 3 3 3 3 3 4 4 5 5 5 5 4 4 3 2
0 0 2 2 2 2 2 1 1 1 1 2 3 3 3 2 2 2 2 2 3 3 3 2 2 2 2 3 3 3 4 3 3 3 4 4 6 6 5 4 4 4 3
1 1 2 1 1 1 2 2 1 1 1 2 2 2 2 2 2 2 2 2 2 2 2 2 2 2 2 3 4 3 3 3 4 3 3 3 4 5 7 7 6 6 6
2 2 2 2 2 2 1 1 1 0 1 1 1 2 2 2 2 2 2 2 2 2 2 2 2 2 2 3 4 4 3 3 4 4 3 3 3 3 3 4 5 7 8
2 2 2 1 1 1 0 1 2 2 2 1 1 1 2 2 1 2 2 2 1 2 2 2 2 2 2 3 3 4 3 3 3 4 4 4 3 3 3 3 3 5 6
3 2 1 0 1 1 1 2 2 2 2 1 1 1 2 2 1 1 1 1 1 1 1 2 2 2 3 3 3 2 2 2 3 3 4 4 4 5 4 4 4 5 5
0 0 1 2 1 1 1 2 2 2 1 1 1 1 1 2 2 2 1 1 1 1 1 1 2 2 3 3 3 3 2 2 2 2 2 4 5 5 4 4 4 5 5
0 1 1 1 0 0 1 1 1 2 2 1 1 1 1 1 2 1 1 1 1 1 1 1 1 2 2 3 3 3 2 2 2 2 2 3 4 5 5 5 5 7 5
1 1 1 1 1 1 2 1 1 2 1 1 1 1 1 1 0 1 1 1 1 1 0 1 1 1 2 2 3 4 4 3 2 3 3 3 4 5 5 5 5 6 4
1 1 2 1 2 1 1 1 1 1 1 1 1 1 1 0 0 1 1 0 1 1 0 1 1 2 2 1 2 4 4 3 2 2 4 4 5 4 4 5 5 3 2
1 1 2 1 1 1 1 1 1 0 1 1 1 1 1 1 0 0 1 1 1 1 1 1 2 2 2 2 1 1 2 2 2 2 2 3 3 2 2 2 2 2 2
1 1 2 1 1 1 2 1 1 0 1 1 1 1 1 1 1 1 2 2 3 3 3 2 2 2 3 3 3 2 2 2 2 1 1 1 1 1 1 1 1 1 1
2 2 1 1 1 1 2 2 2 0 0 1 1 1 1 1 1 1 1 1 2 2 4 4 3 2 3 3 2 2 3 3 2 1 1 1 2 2 2 2 2 2 2
Wind_Direction
198 153 155 150 145 149 152 161 164 164 155 163 166 172 187 193 214 224 210 197 183 173 165 162 157 154 154 162 149 137 117 102 99 92 63 26 31 55 53 55 80 22 307
137 128 130 140 151 159 160 163 166 173 174 179 182 177 174 182 195 216 199 193 183 175 170 164 166 162 154 152 155 139 125 114 117 119 110 55 359 356 11 40 151 275 318
176 165 153 158 155 168 180 178 176 176 175 161 153 137 102 89 119 197 217 220 187 180 173 172 164 163 164 171 175 163 149 153 155 125 138 143 196 296 330 322 330 303 218
170 171 166 166 175 191 187 178 176 175 175 163 165 166 175 180 194 192 206 212 185 177 174 171 167 165 169 174 185 173 164 155 164 159 108 132 147 148 262 325 328 292 236
170 176 179 174 178 177 172 170 157 164 173 176 180 182 184 184 179 170 167 174 175 175 170 165 163 162 168 177 172 159 162 166 168 163 148 120 84 108 144 217 306 319 285
160 170 161 133 131 131 133 135 143 162 179 176 185 188 180 171 159 164 170 176 177 174 170 165 166 166 168 175 175 162 162 171 164 160 156 155 156 167 158 177 207 254 283
161 166 150 150 163 161 164 154 154 169 182 169 180 187 179 174 176 180 184 179 177 182 186 174 173 174 177 172 159 154 165 170 167 172 178 177 179 159 157 156 173 209 285
178 184 180 173 179 182 176 166 171 182 192 185 188 179 172 173 183 182 179 183 186 190 179 173 174 176 173 169 160 158 175 170 177 180 175 178 191 175 168 161 157 164 276
192 186 166 150 179 188 189 190 183 184 198 200 188 178 175 172 176 172 163 171 176 175 171 167 168 175 174 172 167 171 182 175 178 184 181 183 201 184 185 173 172 172 204
340 61 109 128 203 209 208 201 186 193 202 197 189 181 180 177 170 156 158 167 173 169 162 165 167 173 173 171 170 175 183 175 185 185 176 187 204 194 186 188 191 187 191
167 109 137 184 180 176 195 212 205 197 198 200 197 181 172 165 160 166 179 181 173 170 169 176 173 175 176 175 171 184 179 180 192 193 186 198 196 191 191 187 184 193 188
130 63 281 4 5 224 220 206 209 209 213 198 186 187 175 164 165 184 192 182 175 172 175 172 175 181 180 181 179 189 191 190 197 202 196 209 202 202 204 198 201 202 193
87 15 6 316 268 242 241 231 225 228 227 185 177 170 171 171 183 196 193 179 170 167 168 175 185 189 185 187 190 195 200 199 202 203 204 210 202 212 213 209 209 207 198
159 259 333 307 290 266 253 247 241 234 200 174 171 172 181 181 186 188 180 170 165 166 177 186 193 198 193 190 192 199 204 205 211 214 213 213 210 214 211 212 212 204 197
35 283 295 295 312 319 294 268 254 241 188 166 173 185 180 164 160 165 169 159 160 174 178 179 191 196 195 194 198 202 202 205 216 224 224 227 226 222 212 214 206 200 199
234 270 285 281 270 273 293 287 271 255 156 169 183 175 156 152 159 164 161 157 168 177 170 182 191 205 214 204 205 201 204 207 215 229 237 240 237 235 229 228 214 201 199
224 245 266 259 246 232 239 256 254 135 133 149 155 147 150 153 165 163 151 173 189 179 184 199 198 210 236 221 213 212 203 212 219 224 229 239 241 230 235 239 231 227 224
241 244 253 261 284 283 279 117 101 105 104 99 102 113 131 147 157 155 170 188 184 185 198 199 198 209 245 234 223 223 212 221 227 225 223 226 240 234 225 230 236 239 236
230 229 240 242 8 11 53 88 93 100 98 98 103 119 121 121 139 164 198 200 168 187 208 195 195 210 243 236 230 209 209 225 241 241 234 228 237 238 219 215 237 251 254
229 172 60 63 52 22 81 104 123 122 137 171 189 154 136 157 186 204 227 214 181 207 218 225 217 220 236 237 228 197 188 224 251 264 258 248 246 244 226 220 225 244 253
97 76 72 64 358 26 90 119 157 198 215 205 180 167 167 178 181 172 185 180 173 171 229 250 271 252 247 239 221 201 191 216 242 257 267 264 256 253 247 238 232 238 243
87 100 90 20 345 76 107 120 233 238 193 175 178 184 199 209 137 126 112 113 134 145 238 282 309 302 279 244 226 218 217 210 217 247 264 274 273 264 256 245 245 246 238
126 116 114 60 4 8 100 131 290 306 162 168 189 192 184 140 151 155 157 154 143 138 246 269 282 298 309 287 247 234 235 233 230 256 269 279 280 274 261 252 251 239 222
112 106 103 92 17 2 0 319 310 36 123 211 221 198 194 214 220 203 180 179 189 205 235 251 269 280 291 291 285 264 250 251 257 282 298 298 293 280 270 276 252 229 221
122 115 118 101 350 350 347 337 337 101 117 271 267 234 214 212 225 235 217 207 219 210 212 228 237 250 271 274 256 242 249 244 248 256 310 328 329 317 302 283 264 244 224
122 108 88 73 17 357 339 334 332 360 102 318 284 255 236 233 224 227 305 285 236 243 227 225 224 243 251 275 272 262 266 265 235 185 246 264 264 269 272 271 268 255 242